DLH2EW EDDF-EPWA

Flight info

Callsign DLH2EW
Flight time 1h 16m
Altitude 37000
Route SULUS4D SULUS L984 OKG DCT BALTU DCT LEGAZ DCT LAGAR DCT OKENO Q277 AGAVA
Aircraft A321/M-SDE3FGHIRWY/LB1

Departure

Time 2026-05-05 05:20
Airport Frankfurt Main Airport (EDDF)

Arrival

Time 2026-05-05 06:37
Airport Warsaw Chopin Airport (EPWA)
Time Latitude Longitude Altitude Speed Heading
2026-05-05 04:39 50.04784 8.56491 356 ft 0 kts 339°
2026-05-05 04:53 50.04784 8.56492 356 ft 0 kts 339°
2026-05-05 05:09 50.04773 8.56498 364 ft 2 kts 339°
2026-05-05 05:09 50.04757 8.56507 363 ft 2 kts 339°
2026-05-05 05:09 50.04742 8.56516 360 ft 2 kts 339°
2026-05-05 05:10 50.04728 8.56528 361 ft 2 kts 309°
2026-05-05 05:10 50.04721 8.56551 361 ft 2 kts 273°
2026-05-05 05:10 50.04720 8.56561 361 ft 2 kts 250°
2026-05-05 05:10 50.04715 8.56539 358 ft 2 kts 249°
2026-05-05 05:11 50.04710 8.56517 359 ft 2 kts 249°
2026-05-05 05:11 50.04704 8.56492 358 ft 2 kts 249°
2026-05-05 05:11 50.04698 8.56467 362 ft 2 kts 249°
2026-05-05 05:11 50.04697 8.56464 361 ft 0 kts 249°
2026-05-05 05:13 50.04696 8.56461 361 ft 1 kts 249°
2026-05-05 05:14 50.04691 8.56437 358 ft 4 kts 249°
2026-05-05 05:14 50.04676 8.56375 358 ft 7 kts 249°
2026-05-05 05:14 50.04653 8.56278 364 ft 11 kts 250°
2026-05-05 05:14 50.04621 8.56146 357 ft 16 kts 250°
2026-05-05 05:15 50.04581 8.55980 363 ft 17 kts 247°
2026-05-05 05:15 50.04483 8.55901 359 ft 16 kts 197°
2026-05-05 05:15 50.04370 8.55912 359 ft 18 kts 159°
2026-05-05 05:15 50.04267 8.55962 354 ft 15 kts 187°
2026-05-05 05:16 50.04213 8.55830 354 ft 17 kts 249°
2026-05-05 05:16 50.04167 8.55643 360 ft 19 kts 251°
2026-05-05 05:16 50.04117 8.55438 356 ft 21 kts 252°
2026-05-05 05:16 50.04070 8.55226 358 ft 21 kts 249°
2026-05-05 05:17 50.04017 8.55011 356 ft 22 kts 250°
2026-05-05 05:17 50.03961 8.54780 354 ft 24 kts 249°
2026-05-05 05:17 50.03900 8.54528 353 ft 26 kts 250°
2026-05-05 05:17 50.03818 8.54336 346 ft 20 kts 186°
2026-05-05 05:18 50.03709 8.54387 346 ft 16 kts 171°
2026-05-05 05:18 50.03620 8.54307 341 ft 15 kts 179°
2026-05-05 05:18 50.03534 8.54351 351 ft 12 kts 159°
2026-05-05 05:18 50.03491 8.54423 351 ft 0 kts 67°
2026-05-05 05:19 50.03491 8.54426 351 ft 0 kts 69°
2026-05-05 05:19 50.03538 8.54619 350 ft 55 kts 69°
2026-05-05 05:20 50.03759 8.55544 351 ft 125 kts 70°
2026-05-05 05:20 50.04130 8.57095 393 ft 175 kts 70°
2026-05-05 05:20 50.04538 8.58848 1079 ft 172 kts 72°
2026-05-05 05:20 50.04914 8.60633 1775 ft 178 kts 72°
2026-05-05 05:21 50.05344 8.62552 2161 ft 199 kts 71°
2026-05-05 05:21 50.05828 8.64686 2450 ft 220 kts 71°
2026-05-05 05:21 50.06359 8.67027 2851 ft 235 kts 71°
2026-05-05 05:21 50.06905 8.69451 3481 ft 238 kts 72°
2026-05-05 05:22 50.07151 8.72001 4062 ft 242 kts 94°
2026-05-05 05:22 50.06906 8.74708 4360 ft 265 kts 101°
2026-05-05 05:22 50.06572 8.77592 4953 ft 274 kts 102°
2026-05-05 05:22 50.06219 8.80542 5682 ft 279 kts 102°
2026-05-05 05:23 50.05867 8.83537 6435 ft 284 kts 101°
2026-05-05 05:23 50.05789 8.86634 7127 ft 290 kts 90°
2026-05-05 05:23 50.05846 8.89787 7858 ft 293 kts 90°
2026-05-05 05:23 50.05904 8.92984 8581 ft 297 kts 90°
2026-05-05 05:24 50.05963 8.96217 9304 ft 301 kts 90°
2026-05-05 05:24 50.06020 8.99497 10005 ft 305 kts 90°
2026-05-05 05:24 50.06073 9.02853 10257 ft 326 kts 90°
2026-05-05 05:24 50.06125 9.06497 10396 ft 348 kts 90°
2026-05-05 05:25 50.06178 9.10328 10796 ft 359 kts 90°
2026-05-05 05:25 50.06235 9.14236 11399 ft 363 kts 90°
2026-05-05 05:25 50.06294 9.18187 12016 ft 367 kts 90°
2026-05-05 05:25 50.06355 9.22170 12667 ft 370 kts 90°
2026-05-05 05:26 50.06415 9.26187 13316 ft 373 kts 90°
2026-05-05 05:26 50.06473 9.30244 13923 ft 376 kts 90°
2026-05-05 05:26 50.06528 9.34328 14490 ft 379 kts 90°
2026-05-05 05:26 50.06583 9.38446 15054 ft 383 kts 90°
2026-05-05 05:27 50.06639 9.42611 15607 ft 386 kts 90°
2026-05-05 05:27 50.06693 9.46802 16159 ft 389 kts 91°
2026-05-05 05:27 50.06786 9.55287 17247 ft 396 kts 91°
2026-05-05 05:28 50.06828 9.59591 17784 ft 399 kts 91°
2026-05-05 05:28 50.06868 9.63920 18301 ft 402 kts 91°
2026-05-05 05:28 50.06909 9.68290 18743 ft 405 kts 91°
2026-05-05 05:28 50.06952 9.72684 19192 ft 408 kts 91°
2026-05-05 05:29 50.06995 9.77122 19633 ft 411 kts 91°
2026-05-05 05:29 50.07040 9.81585 20069 ft 414 kts 91°
2026-05-05 05:29 50.07083 9.86080 20504 ft 417 kts 91°
2026-05-05 05:29 50.07121 9.90608 20942 ft 420 kts 91°
2026-05-05 05:30 50.07154 9.95164 21366 ft 423 kts 91°
2026-05-05 05:30 50.07187 9.99750 21777 ft 426 kts 91°
2026-05-05 05:30 50.07220 10.04375 22196 ft 428 kts 91°
2026-05-05 05:30 50.07252 10.08963 22609 ft 431 kts 91°
2026-05-05 05:31 50.07282 10.13648 23015 ft 434 kts 91°
2026-05-05 05:31 50.07308 10.18361 23423 ft 437 kts 91°
2026-05-05 05:31 50.07334 10.23111 23769 ft 440 kts 91°
2026-05-05 05:31 50.07359 10.27889 24120 ft 443 kts 91°
2026-05-05 05:32 50.07385 10.32692 24472 ft 445 kts 91°
2026-05-05 05:32 50.07409 10.37517 24821 ft 448 kts 91°
2026-05-05 05:32 50.07429 10.42373 25156 ft 450 kts 91°
2026-05-05 05:32 50.07450 10.47266 25489 ft 453 kts 91°
2026-05-05 05:33 50.07468 10.52175 25820 ft 455 kts 91°
2026-05-05 05:33 50.07488 10.57114 26141 ft 458 kts 91°
2026-05-05 05:33 50.07504 10.62080 26468 ft 460 kts 91°
2026-05-05 05:33 50.07514 10.67073 26789 ft 463 kts 91°
2026-05-05 05:34 50.07522 10.72096 27101 ft 466 kts 91°
2026-05-05 05:34 50.07532 10.77154 27414 ft 468 kts 91°
2026-05-05 05:34 50.07538 10.82232 27734 ft 471 kts 91°
2026-05-05 05:34 50.07538 10.87339 28056 ft 473 kts 91°
2026-05-05 05:35 50.07535 10.92474 28375 ft 475 kts 91°
2026-05-05 05:35 50.07530 10.97629 28680 ft 478 kts 91°
2026-05-05 05:35 50.07523 11.02815 28983 ft 480 kts 91°
2026-05-05 05:35 50.07513 11.08024 29272 ft 483 kts 91°
2026-05-05 05:36 50.07500 11.13266 29558 ft 485 kts 91°
2026-05-05 05:36 50.07485 11.18520 29820 ft 487 kts 91°
2026-05-05 05:36 50.07470 11.23798 30061 ft 489 kts 91°
2026-05-05 05:36 50.07452 11.29106 30274 ft 491 kts 91°
2026-05-05 05:37 50.07432 11.34414 30586 ft 490 kts 91°
2026-05-05 05:37 50.07409 11.39633 30900 ft 488 kts 92°
2026-05-05 05:37 50.07385 11.44915 31222 ft 487 kts 92°
2026-05-05 05:37 50.07358 11.50250 31556 ft 486 kts 92°
2026-05-05 05:38 50.07329 11.55435 31874 ft 485 kts 92°
2026-05-05 05:38 50.07299 11.60683 32191 ft 484 kts 92°
2026-05-05 05:38 50.07267 11.65911 32521 ft 483 kts 92°
2026-05-05 05:38 50.07236 11.71133 32831 ft 482 kts 92°
2026-05-05 05:39 50.07205 11.76341 33147 ft 481 kts 92°
2026-05-05 05:39 50.07171 11.81544 33460 ft 480 kts 92°
2026-05-05 05:39 50.07131 11.86741 33751 ft 479 kts 92°
2026-05-05 05:39 50.07086 11.91924 34031 ft 479 kts 92°
2026-05-05 05:40 50.07042 11.97099 34272 ft 478 kts 92°
2026-05-05 05:40 50.06996 12.02273 34503 ft 478 kts 93°
2026-05-05 05:40 50.06946 12.07445 34736 ft 478 kts 93°
2026-05-05 05:40 50.06894 12.12614 34965 ft 477 kts 93°
2026-05-05 05:41 50.06835 12.17781 35179 ft 477 kts 93°
2026-05-05 05:41 50.06768 12.22935 35420 ft 477 kts 93°
2026-05-05 05:41 50.06697 12.28096 35647 ft 476 kts 93°
2026-05-05 05:41 50.06622 12.33248 35878 ft 476 kts 93°
2026-05-05 05:42 50.06546 12.38396 36114 ft 475 kts 93°
2026-05-05 05:42 50.06507 12.43532 36336 ft 476 kts 91°
2026-05-05 05:42 50.06585 12.48687 36557 ft 476 kts 89°
2026-05-05 05:42 50.06751 12.53822 36771 ft 475 kts 88°
2026-05-05 05:43 50.06961 12.58959 36886 ft 476 kts 88°
2026-05-05 05:43 50.07174 12.64098 36903 ft 475 kts 88°
2026-05-05 05:43 50.07533 12.74359 36908 ft 474 kts 89°
2026-05-05 05:44 50.07800 12.84613 36915 ft 474 kts 90°
2026-05-05 05:44 50.08040 12.94873 36914 ft 474 kts 90°
2026-05-05 05:45 50.08293 13.05121 36911 ft 474 kts 89°
2026-05-05 05:45 50.08549 13.15313 36908 ft 474 kts 90°
2026-05-05 05:46 50.08823 13.25575 36908 ft 475 kts 85°
2026-05-05 05:46 50.10411 13.35556 36902 ft 477 kts 67°
2026-05-05 05:47 50.13673 13.44527 36895 ft 477 kts 57°
2026-05-05 05:47 50.17166 13.53322 36893 ft 477 kts 58°
2026-05-05 05:48 50.20636 13.62150 36900 ft 477 kts 58°
2026-05-05 05:48 50.21784 13.65078 36899 ft 477 kts 58°
2026-05-05 05:49 50.24482 13.71879 36894 ft 477 kts 58°
2026-05-05 05:49 50.27940 13.80721 36895 ft 477 kts 58°
2026-05-05 05:50 50.31385 13.89615 36901 ft 478 kts 58°
2026-05-05 05:50 50.34829 13.98505 36926 ft 478 kts 58°
2026-05-05 05:51 50.38283 14.07412 36913 ft 479 kts 58°
2026-05-05 05:51 50.41733 14.16342 36906 ft 479 kts 58°
2026-05-05 05:52 50.45178 14.25280 36908 ft 479 kts 59°
2026-05-05 05:52 50.48619 14.34239 36904 ft 479 kts 59°
2026-05-05 05:53 50.52058 14.43219 36902 ft 479 kts 59°
2026-05-05 05:53 50.55477 14.52213 36900 ft 479 kts 59°
2026-05-05 05:54 50.58887 14.61220 36894 ft 479 kts 59°
2026-05-05 05:54 50.62289 14.70230 36891 ft 479 kts 59°
2026-05-05 05:55 50.65658 14.79286 36888 ft 479 kts 63°
2026-05-05 05:55 50.68164 14.88982 36892 ft 478 kts 70°
2026-05-05 05:56 50.70517 14.98784 36889 ft 478 kts 70°
2026-05-05 05:56 50.72844 15.08532 36891 ft 478 kts 70°
2026-05-05 05:57 50.75182 15.18339 36889 ft 477 kts 70°
2026-05-05 05:57 50.77513 15.28154 36894 ft 477 kts 70°
2026-05-05 05:58 50.79834 15.37977 36894 ft 477 kts 70°
2026-05-05 05:58 50.82277 15.47722 36898 ft 477 kts 68°
2026-05-05 05:59 50.84823 15.57416 36904 ft 477 kts 68°
2026-05-05 05:59 50.87345 15.67122 36903 ft 477 kts 68°
2026-05-05 06:00 50.89821 15.76856 36907 ft 476 kts 69°
2026-05-05 06:00 50.92278 15.86591 36908 ft 476 kts 69°
2026-05-05 06:01 50.94725 15.96329 36909 ft 475 kts 69°
2026-05-05 06:01 50.97163 16.06079 36912 ft 475 kts 69°
2026-05-05 06:02 50.99594 16.15836 36911 ft 475 kts 69°
2026-05-05 06:02 51.02020 16.25602 36910 ft 475 kts 69°
2026-05-05 06:03 51.04438 16.35375 36907 ft 475 kts 69°
2026-05-05 06:03 51.06835 16.45098 36910 ft 475 kts 69°
2026-05-05 06:04 51.09235 16.54895 36916 ft 476 kts 69°
2026-05-05 06:04 51.11631 16.64708 36916 ft 476 kts 69°
2026-05-05 06:05 51.14015 16.74525 36916 ft 475 kts 69°
2026-05-05 06:05 51.16396 16.84353 36918 ft 475 kts 69°
2026-05-05 06:06 51.18770 16.94187 36915 ft 475 kts 69°
2026-05-05 06:06 51.21132 17.04036 36919 ft 475 kts 69°
2026-05-05 06:07 51.23477 17.13895 36922 ft 475 kts 70°
2026-05-05 06:07 51.25818 17.23756 36925 ft 475 kts 70°
2026-05-05 06:08 51.28158 17.33629 36932 ft 475 kts 70°
2026-05-05 06:08 51.30489 17.43504 36935 ft 475 kts 70°
2026-05-05 06:09 51.32790 17.53328 36935 ft 475 kts 70°
2026-05-05 06:09 51.35094 17.63230 36935 ft 475 kts 70°
2026-05-05 06:10 51.37394 17.73124 36938 ft 475 kts 70°
2026-05-05 06:10 51.39691 17.83032 36939 ft 474 kts 70°
2026-05-05 06:11 51.41971 17.92949 36935 ft 474 kts 70°
2026-05-05 06:11 51.44236 18.02876 36938 ft 474 kts 70°
2026-05-05 06:12 51.46505 18.12806 36821 ft 475 kts 70°
2026-05-05 06:12 51.47640 18.17775 36551 ft 473 kts 70°
2026-05-05 06:12 51.48764 18.22733 36167 ft 475 kts 70°
2026-05-05 06:13 51.49900 18.27767 35687 ft 481 kts 70°
2026-05-05 06:13 51.51030 18.32788 35195 ft 476 kts 70°
2026-05-05 06:13 51.52145 18.37761 34731 ft 472 kts 70°
2026-05-05 06:13 51.53256 18.42717 34264 ft 472 kts 70°
2026-05-05 06:14 51.54372 18.47710 33791 ft 477 kts 70°
2026-05-05 06:14 51.55492 18.52724 33272 ft 476 kts 70°
2026-05-05 06:14 51.56472 18.57764 32724 ft 471 kts 77°
2026-05-05 06:14 51.56988 18.62933 32193 ft 465 kts 86°
2026-05-05 06:15 51.57096 18.68099 31666 ft 461 kts 90°
2026-05-05 06:15 51.57157 18.73227 31147 ft 457 kts 90°
2026-05-05 06:15 51.57223 18.78315 30644 ft 453 kts 89°
2026-05-05 06:15 51.57289 18.83363 30125 ft 450 kts 90°
2026-05-05 06:16 51.57353 18.88365 29557 ft 446 kts 90°
2026-05-05 06:16 51.57414 18.93322 28974 ft 442 kts 90°
2026-05-05 06:16 51.57470 18.98236 28404 ft 438 kts 90°
2026-05-05 06:16 51.57523 19.03112 27845 ft 434 kts 90°
2026-05-05 06:17 51.57571 19.07939 27288 ft 431 kts 90°
2026-05-05 06:17 51.57619 19.12740 26743 ft 427 kts 90°
2026-05-05 06:17 51.57668 19.17494 26211 ft 424 kts 90°
2026-05-05 06:17 51.57715 19.22212 25685 ft 421 kts 90°
2026-05-05 06:18 51.57757 19.26893 25175 ft 417 kts 90°
2026-05-05 06:18 51.57795 19.31543 24682 ft 414 kts 90°
2026-05-05 06:18 51.57830 19.36152 24197 ft 411 kts 90°
2026-05-05 06:18 51.57862 19.40733 23724 ft 408 kts 90°
2026-05-05 06:19 51.57892 19.45284 23216 ft 405 kts 90°
2026-05-05 06:19 51.57922 19.49796 22663 ft 402 kts 90°
2026-05-05 06:19 51.57952 19.54282 22122 ft 399 kts 90°
2026-05-05 06:19 51.57977 19.58671 21614 ft 397 kts 90°
2026-05-05 06:20 51.58002 19.63088 21083 ft 394 kts 90°
2026-05-05 06:20 51.58026 19.67472 20557 ft 391 kts 90°
2026-05-05 06:20 51.58049 19.71830 20036 ft 388 kts 90°
2026-05-05 06:20 51.58073 19.76154 19517 ft 386 kts 90°
2026-05-05 06:21 51.58094 19.80453 19012 ft 384 kts 90°
2026-05-05 06:21 51.58110 19.84735 18536 ft 382 kts 90°
2026-05-05 06:21 51.58123 19.89003 18094 ft 381 kts 91°
2026-05-05 06:21 51.58136 19.93251 17610 ft 379 kts 91°
2026-05-05 06:22 51.58140 19.97468 17136 ft 376 kts 92°
2026-05-05 06:22 51.58068 20.01652 16663 ft 373 kts 94°
2026-05-05 06:22 51.57937 20.05808 16198 ft 370 kts 95°
2026-05-05 06:22 51.57780 20.09924 15745 ft 368 kts 95°
2026-05-05 06:23 51.57626 20.14016 15308 ft 366 kts 95°
2026-05-05 06:23 51.57472 20.18078 14859 ft 363 kts 95°
2026-05-05 06:23 51.57324 20.22115 14419 ft 361 kts 95°
2026-05-05 06:23 51.57184 20.26142 13994 ft 359 kts 95°
2026-05-05 06:24 51.57050 20.30134 13545 ft 357 kts 95°
2026-05-05 06:24 51.56918 20.34094 13080 ft 353 kts 95°
2026-05-05 06:24 51.56784 20.38022 12665 ft 350 kts 95°
2026-05-05 06:24 51.56735 20.41919 12247 ft 349 kts 86°
2026-05-05 06:25 51.57298 20.45682 11842 ft 347 kts 67°
2026-05-05 06:25 51.58561 20.48960 11457 ft 345 kts 52°
2026-05-05 06:25 51.60047 20.51980 11086 ft 343 kts 51°
2026-05-05 06:25 51.61528 20.54952 10777 ft 336 kts 51°
2026-05-05 06:26 51.62974 20.57837 10532 ft 327 kts 51°
2026-05-05 06:26 51.64377 20.60641 10379 ft 315 kts 51°
2026-05-05 06:26 51.65717 20.63324 10232 ft 310 kts 52°
2026-05-05 06:26 51.67075 20.66054 9901 ft 306 kts 52°
2026-05-05 06:27 51.68401 20.68728 9561 ft 305 kts 52°
2026-05-05 06:27 51.71028 20.74042 8878 ft 301 kts 52°
2026-05-05 06:27 51.72311 20.76643 8550 ft 300 kts 52°
2026-05-05 06:28 51.73603 20.79263 8226 ft 298 kts 52°
2026-05-05 06:28 51.74888 20.81874 7892 ft 296 kts 52°
2026-05-05 06:28 51.76167 20.84471 7570 ft 294 kts 51°
2026-05-05 06:28 51.77432 20.87036 7243 ft 287 kts 51°
2026-05-05 06:29 51.78639 20.89486 6933 ft 270 kts 51°
2026-05-05 06:29 51.79722 20.91690 6710 ft 264 kts 51°
2026-05-05 06:29 51.80842 20.93973 6464 ft 258 kts 51°
2026-05-05 06:29 51.81950 20.96235 6218 ft 257 kts 52°
2026-05-05 06:30 51.83055 20.98497 5965 ft 255 kts 51°
2026-05-05 06:30 51.84294 21.00513 5701 ft 252 kts 31°
2026-05-05 06:30 51.85882 21.01640 5458 ft 249 kts 17°
2026-05-05 06:30 51.87528 21.02529 5181 ft 248 kts 17°
2026-05-05 06:31 51.89158 21.03412 4908 ft 246 kts 17°
2026-05-05 06:31 51.90774 21.04286 4651 ft 245 kts 17°
2026-05-05 06:31 51.92383 21.05157 4384 ft 243 kts 17°
2026-05-05 06:31 51.93973 21.06022 4102 ft 238 kts 17°
2026-05-05 06:32 51.95525 21.06865 3826 ft 233 kts 18°
2026-05-05 06:32 51.97049 21.07693 3561 ft 228 kts 18°
2026-05-05 06:32 51.98517 21.08489 3306 ft 216 kts 18°
2026-05-05 06:32 51.99919 21.09227 3078 ft 207 kts 14°
2026-05-05 06:33 52.01304 21.09396 2997 ft 195 kts 354°
2026-05-05 06:33 52.02583 21.08865 3016 ft 187 kts 336°
2026-05-05 06:33 52.03725 21.07904 2894 ft 184 kts 331°
2026-05-05 06:33 52.04845 21.06931 2695 ft 182 kts 332°
2026-05-05 06:34 52.05960 21.05961 2472 ft 181 kts 332°
2026-05-05 06:34 52.07069 21.04997 2234 ft 180 kts 332°
2026-05-05 06:34 52.08144 21.04062 2006 ft 169 kts 334°
2026-05-05 06:34 52.09149 21.03188 1785 ft 160 kts 334°
2026-05-05 06:35 52.10101 21.02359 1568 ft 151 kts 334°
2026-05-05 06:35 52.11018 21.01560 1376 ft 148 kts 334°
2026-05-05 06:35 52.11615 21.01040 1243 ft 147 kts 333°
2026-05-05 06:35 52.12760 21.00043 1004 ft 147 kts 333°
2026-05-05 06:36 52.13659 20.99256 767 ft 147 kts 332°
2026-05-05 06:36 52.14570 20.98458 572 ft 148 kts 333°
2026-05-05 06:36 52.15454 20.97673 402 ft 147 kts 331°
2026-05-05 06:36 52.16299 20.96976 337 ft 127 kts 327°
2026-05-05 06:37 52.16752 20.96560 338 ft 95 kts 333°
2026-05-05 06:37 52.17137 20.96244 333 ft 44 kts 346°
2026-05-05 06:37 52.17324 20.96251 337 ft 20 kts 359°
2026-05-05 06:37 52.17402 20.96316 336 ft 12 kts 80°
2026-05-05 06:38 52.17432 20.96399 336 ft 7 kts 55°
2026-05-05 06:38 52.17450 20.96450 338 ft 8 kts 66°
2026-05-05 06:38 52.17470 20.96542 336 ft 7 kts 104°
2026-05-05 06:38 52.17430 20.96600 339 ft 9 kts 149°
2026-05-05 06:39 52.17370 20.96654 338 ft 11 kts 152°
2026-05-05 06:39 52.17297 20.96715 338 ft 13 kts 152°
2026-05-05 06:39 52.17273 20.96736 336 ft 0 kts 152°
2026-05-05 06:41 52.17272 20.96737 336 ft 1 kts 151°
2026-05-05 06:41 52.17252 20.96755 336 ft 5 kts 150°
2026-05-05 06:41 52.17209 20.96795 339 ft 9 kts 150°
2026-05-05 06:41 52.17147 20.96851 335 ft 12 kts 152°
2026-05-05 06:42 52.17130 20.96955 333 ft 10 kts 63°
2026-05-05 06:42 52.17150 20.97013 338 ft 0 kts 62°
2026-05-05 06:42 52.17149 20.97012 338 ft 2 kts 62°
2026-05-05 06:42 52.17149 20.97010 338 ft 0 kts 62°